TimeAST,TemperatureF,Dew PointF,Humidity,Sea Level PressureIn,VisibilityMPH,Wind Direction,Wind SpeedMPH,Gust SpeedMPH,PrecipitationIn,Events,Conditions,WindDirDegrees,DateUTC
12:00 AM,77.0,75.2,94,29.89,6.2,Calm,Calm,-,N/A,,Mostly Cloudy,0,2012-11-01 04:00:00
1:00 AM,77.0,73.4,89,29.89,6.2,Calm,Calm,-,N/A,,Partly Cloudy,0,2012-11-01 05:00:00
2:00 AM,75.2,75.2,100,29.86,6.2,Calm,Calm,-,N/A,,Mostly Cloudy,0,2012-11-01 06:00:00
3:00 AM,75.2,75.2,100,29.86,6.2,Calm,Calm,-,N/A,,Mostly Cloudy,0,2012-11-01 07:00:00
5:00 AM,75.2,73.4,94,29.86,6.2,Calm,Calm,-,N/A,,Mostly Cloudy,0,2012-11-01 09:00:00
6:00 AM,78.8,77.0,94,29.89,6.2,NNE,8.1,-,N/A,,Mostly Cloudy,20,2012-11-01 10:00:00
7:00 AM,78.8,75.2,89,29.89,6.2,NNE,5.8,-,N/A,,Mostly Cloudy,30,2012-11-01 11:00:00
8:00 AM,78.8,73.4,83,29.92,6.2,Calm,Calm,-,N/A,,Mostly Cloudy,0,2012-11-01 12:00:00
9:00 AM,84.2,75.2,74,29.92,6.2,Calm,Calm,-,N/A,,Mostly Cloudy,0,2012-11-01 13:00:00
10:00 AM,84.2,77.0,79,29.95,6.2,NNE,9.2,-,N/A,,Mostly Cloudy,20,2012-11-01 14:00:00
11:00 AM,84.2,77.0,79,29.92,6.2,ENE,8.1,-,N/A,,Mostly Cloudy,70,2012-11-01 15:00:00
12:00 PM,82.4,77.0,84,29.89,6.2,Calm,Calm,-,N/A,Rain,Light Rain Showers,0,2012-11-01 16:00:00
1:00 PM,82.4,75.2,79,29.86,6.2,North,4.6,-,N/A,Rain,Light Rain Showers,360,2012-11-01 17:00:00
2:00 PM,80.6,75.2,84,29.83,3.7,NNE,8.1,-,N/A,Rain,Light Rain Showers,30,2012-11-01 18:00:00
3:00 PM,82.4,75.2,79,29.83,6.2,NNE,11.5,-,N/A,,Mostly Cloudy,20,2012-11-01 19:00:00
4:00 PM,82.4,75.2,79,29.83,6.2,North,6.9,-,N/A,,Mostly Cloudy,360,2012-11-01 20:00:00
5:00 PM,82.4,73.4,74,29.83,6.2,NNE,6.9,-,N/A,,Mostly Cloudy,30,2012-11-01 21:00:00
6:00 PM,80.6,73.4,79,29.83,6.2,NE,3.5,-,N/A,,Mostly Cloudy,50,2012-11-01 22:00:00
7:00 PM,78.8,73.4,83,29.83,6.2,Calm,Calm,-,N/A,,Mostly Cloudy,0,2012-11-01 23:00:00
8:00 PM,78.8,75.2,89,29.86,6.2,Calm,Calm,-,N/A,,Scattered Clouds,0,2012-11-02 00:00:00
9:00 PM,78.8,75.2,89,29.89,6.2,Calm,Calm,-,N/A,,Scattered Clouds,0,2012-11-02 01:00:00
10:00 PM,78.8,75.2,89,29.89,5.6,Calm,Calm,-,N/A,,Partly Cloudy,0,2012-11-02 02:00:00
11:00 PM,78.8,75.2,89,29.89,6.2,NE,4.6,-,N/A,Rain,Light Rain Showers,40,2012-11-02 03:00:00